RH
81 71 71 66 62 58 56 56 50 46 46 46 37 33 35 45 54 60 63 73 71 76 76 79 74 77 78 77 79 77 78 85 78 71 77 83 85 74 72 76 91 83 85 84 83 81 72 76 76 85 97 90 84 79
56 60 69 79 79 73 58 52 46 39 41 40 36 32 34 45 54 63 64 74 78 77 80 79 77 71 74 80 80 82 84 83 82 76 76 77 87 81 78 80 80 93 88 96 94 97 90 83 79 78 78 77 79 74
46 46 53 53 64 77 76 65 53 44 41 39 36 31 32 47 55 63 66 73 78 79 81 81 75 73 67 65 71 79 84 84 82 78 82 84 88 96 91 86 84 87 87 90 94 92 94 94 90 81 77 78 76 75
41 41 50 55 57 55 62 71 66 54 43 41 39 31 34 48 57 64 68 76 82 82 80 75 70 70 67 61 62 68 77 84 81 82 84 83 80 78 82 85 83 86 88 96 95 93 92 95 94 92 86 85 84 87
41 41 43 48 54 55 56 59 64 58 50 47 41 33 40 52 60 68 72 78 86 87 83 80 76 73 67 59 60 63 73 83 81 79 83 81 76 84 85 83 86 95 97 96 97 92 96 95 97 91 93 94 93 93
45 41 41 46 50 55 54 57 60 58 48 47 42 39 45 57 67 76 77 81 87 90 89 84 76 72 72 61 61 61 72 81 83 78 81 79 90 94 98 83 89 97 97 97 98 98 97 95 96 95 98 97 95 92
41 45 39 40 47 50 57 54 57 54 50 43 41 43 51 63 76 81 85 84 86 92 92 86 77 74 74 69 63 64 68 81 86 84 77 80 87 91 88 84 87 94 97 97 98 98 97 97 98 97 97 97 97 96
40 40 41 37 45 49 60 58 55 52 46 44 50 60 67 74 84 87 92 93 96 97 93 87 76 74 77 80 71 69 77 82 86 85 81 87 86 84 84 82 83 94 97 98 98 97 97 97 97 97 97 95 93 91
43 39 39 39 49 53 61 59 57 49 52 53 70 79 85 85 89 92 98 99 97 98 92 81 78 81 82 86 89 86 79 86 83 84 79 86 84 81 80 77 79 87 92 95 96 97 97 97 97 97 96 92 90 86
45 41 40 44 52 57 62 64 58 53 58 82 87 93 91 91 97 98 98 98 98 97 90 78 72 78 83 94 94 92 84 81 84 79 81 79 76 76 77 77 76 77 86 90 94 94 96 97 96 94 90 87 83 82
43 42 37 46 53 57 67 64 57 57 78 91 94 96 96 99 98 98 98 96 94 86 75 73 69 75 83 91 96 97 96 90 84 81 87 79 74 79 80 77 75 74 79 86 88 90 91 92 91 90 87 85 82 80
43 40 40 48 56 70 66 58 52 67 86 95 99 98 99 98 98 98 92 87 79 73 69 65 68 73 85 88 91 95 96 93 88 86 88 80 79 86 84 83 80 88 90 90 90 88 87 86 83 80 79 77 76 75
35 39 45 60 73 65 54 53 84 97 98 99 99 99 98 96 95 82 75 72 69 65 65 71 74 80 86 91 94 98 98 97 90 94 89 84 88 90 93 90 89 88 88 89 89 89 87 82 79 79 79 80 77 76
42 65 76 65 57 56 79 98 98 99 98 98 96 98 91 89 77 68 59 59 62 67 74 83 85 88 92 96 97 98 97 95 94 92 89 91 93 95 95 94 92 87 86 86 87 86 86 86 87 88 86 84 83 81
69 62 61 75 92 98 98 98 98 98 98 98 94 93 77 72 73 68 65 65 68 72 76 86 91 94 97 97 97 97 97 95 91 90 90 92 94 95 93 91 89 87 86 86 86 84 81 80 81 82 83 84 84 85
88 96 97 98 98 98 98 98 99 98 98 95 87 77 72 72 72 71 70 72 76 81 87 89 92 93 96 94 92 94 92 89 89 88 89 91 91 93 94 89 87 90 91 92 91 90 89 90 90 89 88 87 87 88
98 98 98 98 99 99 98 98 94 97 96 93 89 82 79 75 72 73 74 77 80 83 85 83 87 90 88 85 85 82 82 80 80 80 80 81 83 85 86 87 88 91 92 93 94 94 95 96 97 97 96 95 95 95
98 98 95 98 94 98 91 89 90 93 91 89 85 82 80 79 76 75 76 79 82 85 87 88 84 80 78 79 78 77 77 79 80 83 85 87 92 95 94 89 82 77 73 71 71 73 74 76 76 77 78 78 80 83
93 93 98 99 96 93 89 85 83 80 84 86 82 77 76 75 76 78 79 81 83 83 82 77 77 75 75 74 74 77 80 83 88 88 76 67 60 55 52 51 52 53 53 56 58 60 63 64 66 67 68 69 70 71
96 95 95 94 91 84 83 82 79 79 78 81 83 82 80 79 79 80 81 78 77 77 76 76 77 79 84 88 93 94 78 64 55 49 46 45 45 45 47 48 49 51 52 53 55 57 59 62 63 65 66 67 68 69
93 91 89 88 81 78 80 76 74 78 78 78 78 81 86 87 86 84 82 80 81 80 85 88 91 93 91 68 55 46 40 41 41 41 42 42 42 44 44 45 47 49 52 52 54 54 57 59 61 63 65 66 66 67
87 87 85 83 84 84 84 80 76 77 79 82 84 84 87 87 85 86 87 89 91 92 93 93 87 57 41 37 36 37 34 35 36 38 39 41 43 44 45 45 47 48 49 51 53 55 57 60 62 64 66 66 66 64
86 84 84 83 83 83 87 88 86 86 89 92 92 91 89 89 90 89 90 91 91 87 76 56 40 37 34 34 34 35 35 37 38 39 40 41 42 43 43 44 45 46 47 50 52 53 53 52 50 51 52 55 55 55
85 85 85 86 86 88 86 85 85 86 90 89 88 88 85 83 84 78 72 66 63 57 48 38 37 36 37 38 38 37 36 37 37 38 40 41 41 42 41 41 41 40 40 39 40 41 40 39 38 40 41 43 45 46
77 82 84 85 83 82 82 82 82 83 87 84 80 78 71 57 46 44 47 50 48 42 39 38 38 38 37 36 37 36 36 39 39 38 35 36 36 35 34 33 31 30 30 34 36 38 36 36 35 37 38 39 40 40
76 77 78 80 80 79 79 81 80 78 77 75 72 59 39 36 37 37 38 39 38 36 35 36 36 36 37 37 37 37 36 37 35 35 33 31 31 33 33 31 31 30 29 31 34 38 38 36 37 38 39 39 39 39
75 76 77 77 77 76 75 73 69 65 65 60 50 40 36 34 33 37 38 37 36 36 35 34 34 36 36 35 36 37 39 40 39 36 31 27 25 25 27 32 32 29 28 28 29 33 38 37 38 38 41 41 41 42
71 73 72 73 73 71 70 66 63 61 54 43 36 36 34 32 37 37 37 34 32 30 30 30 31 34 37 38 39 41 41 41 39 33 30 28 27 26 27 26 25 25 26 26 27 28 32 34 37 39 41 46 44 46
61 65 64 63 60 60 62 61 59 54 47 39 36 35 35 35 35 34 31 31 29 27 27 29 30 33 38 41 42 41 41 40 37 36 35 32 30 29 29 28 27 27 28 29 30 30 30 32 35 39 42 45 46 47
51 54 57 59 59 57 57 57 56 52 45 38 37 37 37 39 38 34 32 30 30 30 30 31 31 34 39 43 42 41 40 39 40 40 39 37 34 32 30 30 30 29 30 31 31 30 31 31 33 36 39 42 44 45
50 48 48 51 58 62 61 60 58 53 45 38 34 37 39 41 41 38 35 34 33 32 33 34 34 36 41 43 45 43 41 41 42 42 41 40 39 37 34 33 32 32 31 32 32 32 32 33 32 33 35 37 38 40
49 49 49 50 52 54 60 63 63 60 55 47 41 38 39 40 41 39 38 37 35 34 34 35 35 38 41 47 50 46 44 44 43 43 43 43 43 41 39 36 35 34 34 33 32 32 32 31 33 33 35 38 41 44
50 51 53 53 55 55 55 57 62 64 61 54 48 43 42 39 39 38 37 37 36 36 37 37 38 40 42 50 52 50 49 49 48 46 45 46 46 46 44 41 39 37 36 35 35 35 36 37 38 40 41 44 48 52